1497139200.54,21011,17.25,74154.8,0.37,-8.59,-8.25,0,*41
1497139201.74,21012,17.25,74152.5,0.41,-8.59,-8.25,0,*43
1497139202.92,21013,17.25,74152.8,0.39,-8.59,-8.21,0,*49
1497139204.1,21014,17.25,74156.0,0.39,-8.71,-8.41,0,*42
1497139205.31,21015,17.25,74154.0,0.37,-8.67,-8.21,0,*4C
1497139206.5,21016,17.25,74156.8,0.41,-8.59,-8.17,0,*46
1497139207.71,21017,17.25,74156.5,0.37,-8.67,-8.25,0,*4A
1497139208.89,21018,17.25,74156.0,0.39,-8.71,-8.33,0,*4B
1497139210.07,21019,17.25,74156.0,0.39,-8.71,-8.33,0,*4A
1497139211.25,21020,17.25,74154.5,0.39,-8.63,-8.29,0,*48
1497139212.43,21021,17.25,74156.0,0.39,-8.59,-8.21,0,*48
1497139213.62,21022,17.25,74154.3,0.39,-8.71,-8.21,0,*41
1497139214.8,21023,17.25,74154.3,0.39,-8.45,-8.21,0,*47
1497139215.99,21024,17.25,74152.5,0.39,-8.55,-8.21,0,*41
1497139217.17,21025,17.25,74156.5,0.39,-8.59,-8.21,0,*4C
1497139218.36,21026,17.25,74158.0,0.41,-8.59,-8.25,0,*44
1497139219.56,21027,17.25,74156.5,0.41,-8.59,-8.25,0,*45
1497139220.75,21028,17.25,74152.3,0.39,-8.63,-8.21,0,*48
1497139221.97,21029,17.25,74152.5,0.41,-8.59,-8.11,0,*4C
1497139223.17,21030,17.25,74156.0,0.41,-8.59,-8.17,0,*42
1497139224.37,21031,17.25,74156.8,0.41,-8.67,-8.29,0,*43
1497139225.57,21032,17.25,74156.5,0.41,-8.67,-8.17,0,*4D
1497139226.77,21033,17.25,74156.5,0.41,-8.59,-8.17,0,*41
1497139227.97,21034,17.25,74156.5,0.41,-8.55,-8.17,0,*4A
1497139229.15,21035,17.25,74158.8,0.39,-8.63,-8.17,0,*41
1497139230.33,21036,17.25,74158.0,0.39,-8.45,-8.17,0,*46
1497139231.51,21037,17.25,74152.5,0.39,-8.55,-8.17,0,*46
1497139232.71,21038,17.25,74154.8,0.41,-8.67,-8.25,0,*46
1497139233.93,21039,17.25,74156.8,0.41,-8.37,-8.03,0,*46
1497139235.16,21040,17.25,74154.0,0.41,-8.37,-8.03,0,*48
1497139236.34,21041,17.25,74156.5,0.39,-8.63,-8.29,0,*4F
1497139237.54,21042,17.25,74154.3,0.39,-8.41,-8.03,0,*44
1497139238.74,21043,17.25,74156.3,0.39,-8.29,-7.95,0,*4B
1497139239.99,21044,17.25,74156.5,0.41,-8.51,-8.03,0,*4C
1497139241.22,21045,17.25,74154.8,0.41,-8.55,-8.11,0,*4A
1497139242.42,21046,17.25,74156.8,0.43,-8.29,-7.99,0,*4F
1497139243.65,21047,17.25,74152.8,0.43,-8.51,-8.11,0,*4E
1497139244.88,21048,17.25,74154.0,0.41,-8.55,-8.11,0,*47
1497139246.14,21049,17.25,74152.8,0.41,-8.51,-8.11,0,*42
1497139247.37,21050,17.25,74154.3,0.43,-8.51,-8.11,0,*48
1497139248.57,21051,17.25,74152.8,0.41,-8.55,-8.17,0,*49
1497139249.77,21052,17.25,74154.5,0.43,-8.41,-8.11,0,*4B
1497139250.97,21053,17.25,74154.8,0.43,-8.41,-8.03,0,*49
1497139252.15,21054,17.25,74154.3,0.43,-8.67,-8.25,0,*4E
1497139253.35,21055,17.25,74156.0,0.43,-8.55,-8.11,0,*49
1497139254.56,21056,17.25,74154.3,0.43,-8.41,-8.11,0,*4F
1497139255.76,21057,17.25,74152.0,0.41,-8.59,-8.25,0,*42
1497139256.99,21058,17.25,74152.5,0.41,-8.41,-8.11,0,*43
1497139258.19,21059,17.25,74154.3,0.43,-8.37,-7.99,0,*4E
1497139259.42,21060,17.25,74156.0,0.43,-8.51,-8.11,0,*4B
1497139260.6,21061,17.25,74154.8,0.43,-8.67,-8.25,0,*48
1497139261.85,21062,17.25,74156.3,0.41,-8.51,-8.11,0,*4B
1497139263.05,21063,17.25,74154.8,0.43,-8.41,-8.03,0,*4A
1497139264.3,21064,17.25,74154.3,0.41,-8.51,-8.11,0,*4D
1497139265.53,21065,17.25,74156.3,0.41,-8.37,-8.03,0,*4F
1497139266.71,21066,17.25,74154.0,0.43,-8.55,-8.17,0,*4F
1497139267.91,21067,17.25,74158.8,0.43,-8.29,-7.99,0,*4C
1497139269.11,21068,17.25,74152.0,0.43,-8.41,-8.03,0,*41
1497139270.28,21069,17.25,74156.8,0.43,-8.41,-8.17,0,*45
1497139271.51,21070,17.25,74152.8,0.41,-8.55,-8.11,0,*4C
1497139272.72,21071,17.25,74158.0,0.43,-8.59,-8.11,0,*43
1497139273.89,21072,17.25,74154.8,0.43,-8.55,-8.17,0,*4A
1497139275.1,21073,17.25,74156.5,0.43,-8.55,-8.11,0,*4D
1497139276.28,21074,17.25,74158.0,0.43,-8.55,-8.17,0,*4C
1497139277.48,21075,17.25,74152.5,0.43,-8.41,-8.03,0,*4D
1497139278.68,21076,17.25,74158.8,0.43,-8.41,-7.99,0,*42
1497139279.89,21077,17.25,74154.3,0.43,-8.55,-8.11,0,*49
1497139281.09,21078,17.25,74154.8,0.41,-8.55,-8.17,0,*42
1497139282.32,21079,17.25,74156.3,0.41,-8.55,-8.11,0,*45
1497139283.5,21080,17.25,74156.5,0.43,-8.55,-8.17,0,*47
1497139284.7,21081,17.25,74154.3,0.43,-8.37,-7.99,0,*4B
1497139285.91,21082,17.25,74154.5,0.43,-8.37,-7.99,0,*48
1497139287.13,21083,17.25,74152.0,0.41,-8.55,-8.11,0,*40
1497139288.37,21084,17.25,74156.0,0.43,-8.51,-8.11,0,*41
1497139289.59,21085,17.25,74154.0,0.41,-8.37,-8.11,0,*42
1497139290.77,21086,17.25,74154.5,0.43,-8.55,-8.17,0,*41
1497139291.95,21087,17.25,74152.3,0.43,-8.55,-8.17,0,*40
1497139293.18,21088,17.25,74156.5,0.43,-8.51,-8.11,0,*4D
1497139294.38,21089,17.25,74154.5,0.41,-8.55,-8.17,0,*4C
1497139295.56,21090,17.25,74156.0,0.43,-8.55,-8.17,0,*46
1497139296.76,21091,17.25,74154.0,0.41,-8.67,-8.29,0,*49
1497139297.93,21092,17.25,74154.8,0.43,-8.59,-8.25,0,*49
1497139299.11,21093,17.25,74154.8,0.43,-8.59,-8.17,0,*49
1497139300.31,21094,17.25,74158.0,0.43,-8.55,-8.11,0,*44
1497139301.52,21095,17.25,74158.8,0.43,-8.55,-8.11,0,*45
1497139302.7,21096,17.25,74154.3,0.43,-8.55,-8.17,0,*40
1497139303.9,21097,17.25,74156.8,0.41,-8.59,-8.17,0,*4F
1497139305.07,21098,17.25,74158.0,0.43,-8.67,-8.29,0,*42
1497139306.25,21099,17.25,74158.8,0.43,-8.59,-8.25,0,*42
1497139307.45,21100,17.25,74152.8,0.43,-8.55,-8.11,0,*48
1497139308.68,21101,17.25,74156.0,0.41,-8.55,-8.11,0,*4B
1497139309.91,21102,17.25,74156.0,0.41,-8.55,-8.11,0,*48
1497139311.11,21103,17.25,74156.5,0.41,-8.55,-8.17,0,*4F
1497139312.32,21104,17.25,74152.0,0.43,-8.55,-8.11,0,*4C
1497139313.5,21105,17.25,74152.0,0.43,-8.41,-8.17,0,*4E
1497139314.67,21106,17.25,74152.3,0.43,-8.55,-8.17,0,*48
1497139315.9,21107,17.25,74154.3,0.41,-8.59,-8.11,0,*41
1497139317.13,21108,17.25,74152.3,0.41,-8.55,-8.11,0,*42
1497139318.33,21109,17.25,74156.0,0.43,-8.37,-8.11,0,*45
1497139319.54,21110,17.25,74154.5,0.43,-8.55,-8.11,0,*49
1497139320.71,21111,17.25,74154.3,0.43,-8.59,-8.17,0,*42
1497139321.92,21112,17.25,74152.8,0.43,-8.51,-8.17,0,*49
1497139323.12,21113,17.25,74156.0,0.41,-8.59,-8.17,0,*42
1497139324.32,21114,17.25,74154.8,0.41,-8.55,-8.17,0,*49
1497139325.57,21115,17.25,74152.3,0.41,-8.51,-8.11,0,*4A
1497139326.8,21116,17.25,74152.0,0.43,-8.51,-8.03,0,*48
1497139328.0,21117,17.25,74154.0,0.43,-8.55,-8.11,0,*4E
1497139329.2,21118,17.25,74154.8,0.41,-8.59,-8.25,0,*48
1497139330.41,21119,17.25,74152.3,0.43,-8.59,-8.11,0,*4C
1497139331.6,21120,17.25,74154.3,0.41,-8.67,-8.17,0,*4F
1497139332.8,21121,17.25,74154.5,0.41,-8.67,-8.25,0,*4F
1497139333.98,21122,17.25,74156.3,0.43,-8.67,-8.25,0,*4E
1497139335.18,21123,17.25,74154.8,0.41,-8.55,-8.17,0,*4D
1497139336.38,21124,17.25,74156.5,0.41,-8.55,-8.17,0,*4A
1497139337.61,21125,17.25,74154.8,0.41,-8.41,-8.11,0,*48
1497139338.83,21126,17.25,74154.8,0.41,-8.37,-8.03,0,*49
1497139340.03,21127,17.25,74154.3,0.43,-8.41,-8.03,0,*4B
1497139341.23,21128,17.25,74152.0,0.43,-8.41,-8.03,0,*44
1497139342.46,21129,17.25,74154.0,0.41,-8.51,-8.17,0,*43
1497139343.69,21130,17.25,74156.5,0.41,-8.41,-7.99,0,*43
1497139344.89,21131,17.25,74154.3,0.43,-8.41,-8.03,0,*4C
1497139346.08,21132,17.25,74152.8,0.41,-8.67,-8.25,0,*4D
1497139347.34,21133,17.25,74154.3,0.41,-8.51,-8.11,0,*4E
1497139348.54,21134,17.25,74154.5,0.43,-8.41,-8.11,0,*4A
1497139349.8,21135,17.25,74156.5,0.41,-8.51,-8.11,0,*48
1497139351.02,21136,17.25,74158.8,0.41,-8.37,-7.99,0,*44
1497139352.25,21137,17.25,74152.5,0.41,-8.41,-8.03,0,*48
1497139353.48,21138,17.25,74154.3,0.43,-8.51,-8.03,0,*44
1497139354.71,21139,17.25,74158.3,0.43,-8.51,-8.11,0,*46
1497139355.91,21140,17.25,74156.5,0.43,-8.51,-8.17,0,*4E
1497139357.14,21141,17.25,74154.3,0.41,-8.55,-8.11,0,*4F
1497139358.34,21142,17.25,74152.5,0.41,-8.55,-8.17,0,*4A
1497139359.56,21143,17.25,74154.5,0.41,-8.37,-8.03,0,*4A
1497139360.77,21144,17.25,74152.3,0.43,-8.37,-7.99,0,*43
1497139361.95,21145,17.25,74156.3,0.43,-8.41,-8.17,0,*4A
1497139363.12,21146,17.25,74156.0,0.43,-8.59,-8.17,0,*40
1497139364.3,21147,17.25,74154.8,0.43,-8.55,-8.17,0,*4D
1497139365.55,21148,17.25,74156.5,0.41,-8.51,-8.11,0,*42
1497139366.78,21149,17.25,74156.8,0.41,-8.55,-8.11,0,*47
1497139368.03,21150,17.25,74154.8,0.41,-8.51,-8.03,0,*48
1497139369.21,21151,17.25,74152.5,0.43,-8.59,-8.17,0,*46
1497139370.41,21152,17.25,74154.8,0.41,-8.55,-8.17,0,*4B
1497139371.61,21153,17.25,74152.5,0.41,-8.55,-8.25,0,*4B
1497139372.81,21154,17.25,74154.5,0.39,-8.41,-8.03,0,*42
1497139374.04,21155,17.25,74158.3,0.41,-8.29,-7.91,0,*46
1497139375.24,21156,17.25,74154.8,0.43,-8.25,-7.91,0,*4B
1497139376.47,21157,17.25,74152.5,0.41,-8.37,-7.99,0,*43
1497139377.69,21158,17.25,74152.5,0.41,-8.41,-8.03,0,*41
1497139378.9,21159,17.25,74156.5,0.43,-8.37,-7.99,0,*4F
1497139380.1,21160,17.25,74152.0,0.41,-8.25,-7.87,0,*4B
1497139381.33,21161,17.25,74152.8,0.41,-8.37,-7.99,0,*46
1497139382.56,21162,17.25,74154.3,0.41,-8.55,-8.11,0,*4E
1497139383.79,21163,17.25,74156.3,0.41,-8.41,-8.11,0,*4A
1497139384.97,21164,17.25,74154.3,0.43,-8.25,-7.87,0,*4D
1497139386.17,21165,17.25,74154.5,0.43,-8.51,-8.17,0,*49
1497139387.43,21166,17.25,74152.5,0.41,-8.51,-8.11,0,*4E
1497139388.66,21167,17.25,74156.0,0.41,-8.55,-8.11,0,*4B
1497139389.86,21168,17.25,74154.8,0.43,-8.41,-8.03,0,*40
1497139391.06,21169,17.25,74154.3,0.43,-8.25,-7.91,0,*47
1497139392.26,21170,17.25,74154.0,0.43,-8.29,-7.99,0,*4B
1497139393.46,21171,17.25,74150.3,0.43,-8.17,-7.91,0,*4F
1497139394.67,21172,17.25,74152.5,0.43,-8.37,-7.99,0,*46
1497139395.92,21173,17.25,74152.8,0.41,-8.51,-8.03,0,*49
1497139397.12,21174,17.25,74158.0,0.43,-8.55,-8.11,0,*4B
1497139398.35,21175,17.25,74152.8,0.41,-8.41,-8.03,0,*4E
1497139399.55,21176,17.25,74156.5,0.45,-8.25,-7.95,0,*4B
1497139400.75,21177,17.25,74152.3,0.43,-8.37,-8.03,0,*4F
1497139401.95,21178,17.25,74152.0,0.43,-8.41,-8.03,0,*41
1497139403.15,21179,17.25,74154.3,0.43,-8.37,-8.03,0,*41
1497139404.36,21180,17.25,74154.8,0.43,-8.41,-8.03,0,*46
1497139405.58,21181,17.25,74158.0,0.43,-8.51,-7.99,0,*4A
1497139406.79,21182,17.25,74152.8,0.43,-8.41,-8.03,0,*44
1497139408.02,21183,17.25,74152.8,0.43,-8.51,-8.11,0,*47
1497139409.22,21184,17.25,74158.3,0.43,-8.41,-8.11,0,*41
1497139410.42,21185,17.25,74156.0,0.43,-8.29,-7.99,0,*41
1497139411.6,21186,17.25,74152.8,0.43,-8.55,-8.17,0,*40
1497139412.8,21187,17.25,74152.8,0.43,-8.51,-8.17,0,*45
1497139414.0,21188,17.25,74152.8,0.43,-8.29,-7.99,0,*4C
1497139415.21,21189,17.25,74154.8,0.43,-8.25,-7.91,0,*49
1497139416.41,21190,17.25,74152.3,0.43,-8.29,-8.11,0,*4A
1497139417.64,21191,17.25,74154.3,0.43,-8.11,-7.99,0,*4F
1497139418.84,21192,17.25,74154.5,0.43,-8.25,-8.03,0,*47
1497139420.04,21193,17.25,74148.8,0.43,-8.25,-8.11,0,*45
1497139421.22,21194,17.25,74156.5,0.43,-8.41,-8.25,0,*47
1497139422.42,21195,17.25,74152.0,0.43,-8.37,-8.11,0,*40
1497139423.6,21196,17.25,74154.8,0.43,-8.37,-8.17,0,*45
1497139424.8,21197,17.25,74154.0,0.43,-8.51,-8.29,0,*49
1497139425.98,21198,17.25,74154.5,0.43,-8.37,-8.25,0,*4A
1497139427.18,21199,17.25,74154.3,0.43,-8.51,-8.25,0,*4B
1497139428.36,21200,17.25,74154.3,0.43,-8.29,-8.17,0,*46
1497139429.54,21201,17.25,74152.0,0.43,-8.41,-8.17,0,*49
1497139430.73,21202,17.25,74154.5,0.43,-8.29,-8.03,0,*41
1497139431.91,21203,17.25,74154.8,0.43,-8.37,-8.17,0,*4A
1497139433.11,21204,17.25,74152.5,0.43,-8.29,-8.11,0,*44
1497139434.28,21205,17.25,74152.0,0.43,-8.29,-8.17,0,*43
1497139435.46,21206,17.25,74152.8,0.43,-8.41,-8.25,0,*4F
1497139436.64,21207,17.25,74152.0,0.43,-8.59,-8.41,0,*45
1497139437.84,21208,17.25,74152.8,0.43,-8.51,-8.29,0,*4C
1497139439.04,21209,17.25,74154.0,0.43,-8.51,-8.29,0,*4D
1497139440.25,21210,17.25,74152.5,0.43,-8.37,-8.11,0,*4E
1497139441.45,21211,17.25,74152.0,0.43,-8.51,-8.25,0,*48
1497139442.65,21212,17.25,74156.8,0.43,-8.25,-7.99,0,*40
1497139443.83,21213,17.25,74154.0,0.43,-8.37,-8.17,0,*4B
1497139445.03,21214,17.25,74154.3,0.43,-8.29,-8.11,0,*45
1497139446.24,21215,17.25,74154.3,0.43,-8.37,-8.11,0,*4B
1497139447.42,21216,17.25,74152.5,0.43,-8.37,-8.17,0,*4E
1497139448.59,21217,17.25,74152.5,0.43,-8.41,-8.29,0,*43
1497139449.77,21218,17.25,74158.0,0.43,-8.37,-8.25,0,*41
1497139450.97,21219,17.25,74154.8,0.43,-8.25,-8.11,0,*44
1497139452.18,21220,17.25,74152.5,0.43,-8.25,-8.11,0,*4E
1497139453.35,21221,17.25,74154.3,0.43,-8.41,-8.29,0,*46
1497139454.56,21222,17.25,74156.5,0.43,-8.17,-8.11,0,*4D
1497139455.76,21223,17.25,74154.5,0.43,-8.25,-8.03,0,*4E
1497139456.98,21224,17.25,74156.0,0.43,-8.11,-8.03,0,*4E
1497139458.16,21225,17.25,74152.3,0.45,-8.33,-8.25,0,*4D
1497139459.34,21226,17.25,74154.3,0.45,-8.33,-8.21,0,*4A
1497139460.54,21227,17.25,74152.5,0.47,-8.33,-8.21,0,*49
1497139461.72,21228,17.25,74156.5,0.45,-8.37,-8.25,0,*44
1497139462.92,21229,17.25,74154.5,0.45,-8.51,-8.33,0,*42
1497139464.11,21230,17.25,74156.8,0.45,-8.37,-8.25,0,*4D
1497139465.28,21231,17.25,74156.0,0.43,-8.37,-8.25,0,*4A
1497139466.49,21232,17.25,74154.0,0.43,-8.17,-8.11,0,*4C
1497139467.69,21233,17.25,74154.5,0.41,-8.17,-8.17,0,*49
1497139468.93,21234,17.25,74158.0,0.45,-8.11,-8.07,0,*4D
1497139470.11,21235,17.25,74156.5,0.43,-8.41,-8.29,0,*43
1497139471.28,21236,17.25,74152.3,0.43,-8.41,-8.25,0,*4C
1497139472.46,21237,17.25,74154.3,0.43,-8.41,-8.29,0,*41
1497139473.63,21238,17.25,74154.3,0.45,-8.33,-8.25,0,*41
1497139474.81,21239,17.25,74152.0,0.43,-8.37,-8.17,0,*43
1497139475.99,21240,17.25,74152.0,0.43,-8.37,-8.25,0,*4C
1497139477.19,21241,17.25,74152.3,0.43,-8.51,-8.29,0,*41
1497139478.37,21242,17.25,74154.0,0.45,-8.33,-8.21,0,*48
1497139479.55,21243,17.25,74154.3,0.45,-8.37,-8.21,0,*4D
1497139480.73,21244,17.25,74152.5,0.45,-8.33,-8.21,0,*4E
1497139481.91,21245,17.25,74152.0,0.43,-8.41,-8.29,0,*44
1497139483.08,21246,17.25,74154.8,0.43,-8.37,-8.25,0,*4A
1497139484.26,21247,17.25,74154.0,0.43,-8.37,-8.29,0,*47
1497139485.44,21248,17.25,74158.3,0.43,-8.37,-8.25,0,*44
1497139486.61,21249,17.25,74158.3,0.43,-8.25,-8.17,0,*47
1497139487.82,21250,17.25,74152.5,0.43,-8.17,-8.11,0,*48
1497139489.02,21251,17.25,74154.5,0.43,-8.25,-8.03,0,*4B
1497139490.22,21252,17.25,74156.0,0.43,-8.17,-8.03,0,*49
1497139491.42,21253,17.25,74156.8,0.43,-8.29,-8.11,0,*46
1497139492.59,21254,17.25,74152.5,0.43,-8.29,-8.17,0,*47
1497139493.8,21255,17.25,74152.8,0.43,-8.51,-8.29,0,*44
1497139494.97,21256,17.25,74152.8,0.43,-8.37,-8.17,0,*4A
1497139496.17,21257,17.25,74152.5,0.41,-8.37,-8.25,0,*48
1497139497.35,21258,17.25,74152.0,0.43,-8.55,-8.29,0,*4D
1497139498.56,21259,17.25,74154.0,0.43,-8.41,-8.11,0,*42
1497139499.73,21260,17.25,74156.5,0.43,-8.37,-8.17,0,*4F
1497139500.94,21261,17.25,74154.5,0.43,-8.51,-8.25,0,*4F
1497139502.14,21262,17.25,74154.3,0.43,-8.29,-8.11,0,*44
1497139503.32,21263,17.25,74152.0,0.43,-8.37,-8.17,0,*4C
1497139504.49,21264,17.25,74152.8,0.43,-8.37,-8.17,0,*4B
1497139505.67,21265,17.25,74154.5,0.43,-8.37,-8.17,0,*4A
1497139506.85,21266,17.25,74154.8,0.43,-8.41,-8.25,0,*49
1497139508.05,21267,17.25,74156.8,0.41,-8.37,-8.17,0,*4A
1497139509.27,21268,17.25,74156.0,0.41,-8.29,-8.11,0,*4C
1497139510.48,21269,17.25,74152.3,0.43,-8.29,-8.11,0,*4F
1497139511.65,21270,17.25,74150.3,0.43,-8.37,-8.17,0,*4E
1497139512.83,21271,17.25,74152.3,0.43,-8.29,-8.17,0,*40
1497139514.0,21272,17.25,74152.3,0.43,-8.41,-8.25,0,*4C
1497139515.18,21273,17.25,74152.0,0.43,-8.37,-8.29,0,*40
1497139516.36,21274,17.25,74154.0,0.43,-8.41,-8.25,0,*4A
1497139517.54,21275,17.25,74154.5,0.43,-8.55,-8.37,0,*4D
1497139518.72,21276,17.25,74152.8,0.43,-8.37,-8.29,0,*45
1497139519.89,21277,17.25,74156.0,0.43,-8.29,-8.17,0,*46
1497139521.07,21278,17.25,74154.3,0.43,-8.37,-8.29,0,*4B
1497139522.3,21279,17.25,74156.0,0.41,-8.51,-8.29,0,*48
1497139523.5,21280,17.25,74156.8,0.43,-8.51,-8.37,0,*43
1497139524.68,21281,17.25,74152.5,0.43,-8.55,-8.29,0,*49
1497139525.87,21282,17.25,74154.5,0.43,-8.55,-8.37,0,*45
1497139527.07,21283,17.25,74150.5,0.41,-8.41,-8.25,0,*40
1497139528.27,21284,17.25,74156.8,0.43,-8.51,-8.29,0,*48
1497139529.5,21285,17.25,74154.8,0.41,-8.51,-8.29,0,*4B
1497139530.68,21286,17.25,74152.0,0.43,-8.55,-8.37,0,*41
1497139531.89,21287,17.25,74152.0,0.43,-8.51,-8.37,0,*44
1497139533.09,21288,17.25,74154.8,0.43,-8.51,-8.25,0,*48
1497139534.27,21289,17.25,74156.5,0.43,-8.41,-8.29,0,*44
1497139535.47,21290,17.25,74152.3,0.43,-8.51,-8.29,0,*4D
1497139536.67,21291,17.25,74152.8,0.41,-8.37,-8.17,0,*43
1497139537.87,21292,17.25,74154.3,0.41,-8.29,-8.17,0,*4F
1497139539.07,21293,17.25,74156.0,0.41,-8.29,-8.17,0,*4E
1497139540.25,21294,17.25,74154.0,0.43,-8.41,-8.29,0,*48
1497139541.47,21295,17.25,74152.0,0.41,-8.37,-8.11,0,*41
1497139542.65,21296,17.25,74150.8,0.43,-8.41,-8.25,0,*46
1497139543.85,21297,17.25,74150.5,0.43,-8.51,-8.29,0,*4A
1497139545.03,21298,17.25,74152.3,0.43,-8.37,-8.29,0,*45
1497139546.21,21299,17.25,74154.3,0.43,-8.41,-8.29,0,*45
1497139547.41,21300,17.25,74154.3,0.41,-8.37,-8.29,0,*47
1497139548.61,21301,17.25,74156.3,0.41,-8.41,-8.37,0,*48
1497139549.82,21302,17.25,74154.0,0.41,-8.37,-8.25,0,*49
1497139551.04,21303,17.25,74154.5,0.41,-8.37,-8.11,0,*4F
1497139552.22,21304,17.25,74152.8,0.43,-8.41,-8.25,0,*4C
1497139553.43,21305,17.25,74156.0,0.43,-8.37,-8.11,0,*4B
1497139554.63,21306,17.25,74154.5,0.41,-8.25,-8.17,0,*4F
1497139555.8,21307,17.25,74152.8,0.43,-8.37,-8.17,0,*4F
1497139557.01,21308,17.25,74156.5,0.43,-8.51,-8.37,0,*42
1497139558.21,21309,17.25,74154.5,0.43,-8.29,-8.11,0,*48
1497139559.41,21310,17.25,74154.8,0.41,-8.37,-8.25,0,*4A
1497139560.64,21311,17.25,74152.8,0.41,-8.29,-8.11,0,*43
1497139561.82,21312,17.25,74158.0,0.43,-8.41,-8.29,0,*47
1497139563.04,21313,17.25,74152.5,0.41,-8.51,-8.29,0,*45
1497139564.24,21314,17.25,74152.3,0.43,-8.51,-8.29,0,*40
1497139565.45,21315,17.25,74154.3,0.43,-8.25,-8.11,0,*49
1497139566.63,21316,17.25,74152.3,0.43,-8.41,-8.25,0,*4F
1497139567.85,21317,17.25,74156.3,0.41,-8.25,-8.11,0,*49
1497139569.08,21318,17.25,74154.3,0.41,-8.29,-8.11,0,*4A
1497139570.25,21319,17.25,74154.8,0.43,-8.29,-8.17,0,*4F
1497139571.43,21320,17.25,74158.5,0.43,-8.41,-8.37,0,*49
1497139572.63,21321,17.25,74152.8,0.41,-8.37,-8.17,0,*49
1497139573.84,21322,17.25,74154.8,0.43,-8.37,-8.11,0,*4E
1497139575.07,21323,17.25,74154.8,0.41,-8.25,-8.11,0,*4E
1497139576.24,21324,17.25,74152.3,0.43,-8.37,-8.25,0,*4F
1497139577.45,21325,17.25,74154.5,0.43,-8.17,-7.99,0,*44
1497139578.65,21326,17.25,74152.5,0.43,-8.25,-8.03,0,*4A
1497139579.87,21327,17.25,74150.8,0.43,-8.11,-8.03,0,*4C
1497139581.07,21328,17.25,74152.8,0.43,-8.29,-8.11,0,*4B
1497139582.25,21329,17.25,74154.8,0.43,-8.29,-8.25,0,*4D
1497139583.42,21330,17.25,74154.3,0.43,-8.29,-8.17,0,*44
1497139584.6,21331,17.25,74154.3,0.43,-8.41,-8.29,0,*46
1497139585.78,21332,17.25,74154.0,0.43,-8.37,-8.25,0,*48
1497139587.02,21333,17.25,74152.3,0.41,-8.11,-8.03,0,*4B
1497139588.23,21334,17.25,74152.5,0.43,-8.25,-8.11,0,*4A
1497139589.41,21335,17.25,74154.0,0.43,-8.25,-8.17,0,*4D
1497139590.64,21336,17.25,74154.3,0.43,-8.11,-8.11,0,*4F
1497139591.87,21337,17.25,74156.3,0.45,-8.07,-7.99,0,*40
1497139593.05,21338,17.25,74154.0,0.45,-8.33,-8.25,0,*40
1497139594.25,21339,17.25,74158.8,0.45,-8.33,-8.11,0,*46
1497139595.43,21340,17.25,74156.8,0.45,-8.37,-8.25,0,*4B
1497139596.63,21341,17.25,74154.8,0.41,-8.37,-8.29,0,*42
1497139597.83,21342,17.25,74152.0,0.43,-8.17,-8.11,0,*4A
1497139599.01,21343,17.25,74154.3,0.43,-8.25,-8.17,0,*4C
1497139600.21,21344,17.25,74152.0,0.43,-8.25,-8.11,0,*4D
1497139601.39,21345,17.25,74152.3,0.43,-8.29,-8.25,0,*47
1497139602.56,21346,17.25,74154.5,0.43,-8.29,-8.17,0,*45
1497139603.76,21347,17.25,74152.5,0.41,-8.29,-8.17,0,*46
1497139604.93,21348,17.25,74156.5,0.43,-8.37,-8.25,0,*45
1497139606.12,21349,17.25,74154.0,0.43,-8.37,-8.37,0,*47
1497139607.3,21350,17.25,74154.5,0.43,-8.41,-8.29,0,*41
1497139608.47,21351,17.25,74152.5,0.43,-8.37,-8.29,0,*41
1497139609.65,21352,17.25,74154.3,0.43,-8.29,-8.17,0,*40
1497139610.86,21353,17.25,74156.0,0.45,-8.25,-8.11,0,*4D
1497139612.06,21354,17.25,74154.3,0.45,-8.25,-8.11,0,*4A
1497139613.28,21355,17.25,74158.0,0.45,-8.21,-8.07,0,*48
1497139614.51,21356,17.25,74154.5,0.45,-8.07,-7.99,0,*47
1497139615.75,21357,17.25,74152.5,0.45,-8.11,-8.07,0,*49
1497139616.94,21358,17.25,74154.3,0.45,-8.37,-8.21,0,*46
1497139618.11,21359,17.25,74152.8,0.43,-8.37,-8.25,0,*45
1497139619.31,21360,17.25,74152.3,0.43,-8.17,-8.03,0,*49
1497139620.52,21361,17.25,74152.3,0.43,-8.25,-8.11,0,*4A
1497139621.72,21362,17.25,74148.8,0.43,-8.25,-8.11,0,*49
1497139622.92,21363,17.25,74152.8,0.41,-8.41,-8.29,0,*43
1497139624.1,21364,17.25,74154.5,0.43,-8.37,-8.17,0,*4A
1497139625.27,21365,17.25,74154.8,0.43,-8.29,-8.17,0,*44
1497139626.45,21366,17.25,74154.8,0.43,-8.29,-8.17,0,*47
1497139627.62,21367,17.25,74152.8,0.43,-8.29,-8.17,0,*46
1497139628.8,21368,17.25,74152.0,0.43,-8.37,-8.29,0,*4B
1497139630.0,21369,17.25,74154.0,0.43,-8.17,-8.11,0,*43
1497139631.18,21370,17.25,74156.5,0.43,-8.25,-8.17,0,*4C
1497139632.38,21371,17.25,74152.8,0.43,-8.17,-8.11,0,*4A
1497139633.58,21372,17.25,74150.8,0.41,-8.29,-8.17,0,*40
1497139634.78,21373,17.25,74152.5,0.43,-8.51,-8.41,0,*4F
1497139636.01,21374,17.25,74156.5,0.43,-8.11,-8.11,0,*49
1497139637.19,21375,17.25,74154.0,0.43,-8.25,-8.17,0,*49
1497139638.38,21376,17.25,74154.5,0.45,-8.37,-8.37,0,*4D
1497139639.58,21377,17.25,74156.5,0.43,-8.25,-8.11,0,*4D
1497139640.79,21378,17.25,74152.3,0.43,-8.37,-8.11,0,*41
1497139642.03,21379,17.25,74152.8,0.41,-8.03,-8.03,0,*46
1497139643.26,21380,17.25,74156.5,0.45,-8.11,-7.99,0,*4B
1497139644.44,21381,17.25,74156.5,0.43,-8.41,-8.29,0,*4D
1497139645.66,21382,17.25,74154.5,0.43,-8.03,-8.03,0,*40
1497139646.89,21383,17.25,74152.5,0.43,-8.11,-8.03,0,*42
1497139648.11,21384,17.25,74154.0,0.43,-8.11,-8.03,0,*45
1497139649.34,21385,17.25,74154.8,0.43,-8.11,-8.11,0,*47
1497139650.55,21386,17.25,74152.3,0.43,-8.17,-8.11,0,*42
1497139651.72,21387,17.25,74154.8,0.43,-8.37,-8.25,0,*46
1497139652.93,21388,17.25,74152.3,0.43,-8.17,-8.11,0,*4C
1497139654.15,21389,17.25,74152.8,0.43,-8.03,-7.99,0,*47
1497139655.38,21390,17.25,74154.0,0.43,-7.99,-7.91,0,*4B
1497139656.6,21391,17.25,74152.0,0.43,-8.03,-7.99,0,*4E
1497139657.83,21392,17.25,74152.5,0.43,-7.99,-7.91,0,*49
1497139659.03,21393,17.25,74154.8,0.43,-8.25,-8.11,0,*47
1497139660.26,21394,17.25,74156.0,0.43,-7.99,-7.99,0,*47
1497139661.5,21395,17.25,74152.0,0.41,-7.99,-8.03,0,*48
1497139662.73,21396,17.25,74152.5,0.43,-8.11,-8.11,0,*45
1497139663.96,21397,17.25,74154.3,0.43,-8.11,-8.03,0,*47
1497139665.16,21398,17.25,74154.0,0.43,-8.17,-8.03,0,*4E
1497139666.4,21399,17.25,74154.8,0.45,-8.11,-8.07,0,*4B
1497139667.63,21400,17.25,74158.5,0.45,-7.99,-7.99,0,*4B
1497139668.87,21401,17.25,74152.0,0.45,-8.11,-7.99,0,*45
1497139670.1,21402,17.25,74154.5,0.45,-8.11,-7.99,0,*46
1497139671.28,21403,17.25,74154.0,0.45,-8.25,-8.21,0,*4C
1497139672.53,21404,17.25,74156.3,0.45,-8.11,-8.07,0,*48
1497139673.73,21405,17.25,74156.3,0.43,-8.17,-8.11,0,*4E
1497139674.97,21406,17.25,74158.0,0.45,-8.07,-8.07,0,*4D
1497139676.16,21407,17.25,74156.3,0.45,-8.25,-8.21,0,*48
1497139677.33,21408,17.25,74156.0,0.43,-8.25,-8.17,0,*44
1497139678.56,21409,17.25,74154.5,0.43,-8.11,-8.11,0,*44
1497139679.74,21410,17.25,74152.0,0.43,-8.41,-8.29,0,*42
1497139680.94,21411,17.25,74156.0,0.43,-8.17,-8.11,0,*4B
1497139682.17,21412,17.25,74156.5,0.43,-8.11,-8.03,0,*4D
1497139683.39,21413,17.25,74154.5,0.41,-8.17,-8.03,0,*48
1497139684.57,21414,17.25,74158.8,0.43,-8.29,-8.17,0,*45
1497139685.79,21415,17.25,74154.0,0.43,-8.03,-7.99,0,*45
1497139686.99,21416,17.25,74158.3,0.41,-8.17,-8.17,0,*48
1497139688.19,21417,17.25,74154.8,0.43,-8.17,-8.11,0,*4D
1497139689.42,21418,17.25,74152.3,0.43,-7.99,-7.99,0,*44
1497139690.64,21419,17.25,74152.3,0.43,-8.03,-8.03,0,*45
1497139691.81,21420,17.25,74154.8,0.43,-8.25,-8.25,0,*4F
1497139693.05,21421,17.25,74154.3,0.45,-8.07,-7.99,0,*40
1497139694.28,21422,17.25,74154.8,0.45,-8.07,-7.95,0,*4F
1497139695.49,21423,17.25,74158.0,0.43,-8.17,-8.11,0,*4A
1497139696.71,21424,17.25,74152.3,0.43,-8.03,-8.11,0,*48
1497139697.94,21425,17.25,74152.0,0.43,-7.99,-7.91,0,*42
1497139699.19,21426,17.25,74152.0,0.41,-7.99,-7.91,0,*43
1497139700.41,21427,17.25,74152.3,0.43,-8.11,-8.03,0,*4B
1497139701.64,21428,17.25,74156.8,0.43,-7.99,-7.91,0,*4F
1497139702.87,21429,17.19,74152.8,0.43,-7.99,-7.99,0,*46
1497139704.09,21430,17.25,74156.0,0.43,-7.99,-7.91,0,*46
1497139705.32,21431,17.25,74158.3,0.43,-8.11,-8.03,0,*4C